Regional Weather Roundup
Issued by NWS

Home | Current Version | Previous Version | Text Only | Print | Product List | Glossary On
Versions: 1 2 3 4 5 6 7 8 9 10 11 12 13 14 15 16 17 18 19 20 21 22 23 24 25 26 27 28 29 30 31 32 33 34 35 36 37 38 39 40 41 42 43 44 45 46 47 48 49 50
680
ASUS43 KLSX 290307
RWRMO

WEATHER SUMMARY FOR MISSOURI
NATIONAL WEATHER SERVICE SPRINGFIELD MO
1000 PM CDT TUE MAR 28 2017

NOTE: "FAIR" INDICATES FEW OR NO CLOUDS BELOW 12,000 FEET WITH NO
       SIGNIFICANT WEATHER AND/OR OBSTRUCTIONS TO VISIBILITY.
       CURRENT SKY AND/OR WEATHER CONDITIONS ARE NOT AVAILABLE FOR
       CHILLICOTHE AND FARMINGTON.

MOZ001>031-035>038-043-044-053-054-290400-
...NORTHERN AND WESTERN MISSOURI...

CITY           SKY/WX    TMP DP  RH WIND       PRES   REMARKS
KANSAS CTY INT CLOUDY    53  49  86 E16       30.02R
KANSAS C DTWN  CLOUDY    54  50  86 E10       30.02R
LEE`S SUMMIT   CLOUDY    53  50  89 E14       30.02R
ST JOSEPH      CLOUDY    53  49  86 E12       30.04R
CHILLICOTHE      N/A     52  48  86 NE10      30.07F
KIRKSVILLE     CLOUDY    51  47  86 E13       30.10F

$$
MOZ066>068-077>081-088>096-101>105-290400-
...SOUTHWEST MISSOURI...

CITY           SKY/WX    TMP DP  RH WIND       PRES   REMARKS
SPRINGFIELD    CLEAR     59  50  72 E10       29.95R
JOPLIN         CLOUDY    59  53  80 E12       29.86F

$$
MOZ032>034-039>042-045>050-055>058-069>072-290400-
...CENTRAL MISSOURI...

CITY           SKY/WX    TMP DP  RH WIND       PRES   REMARKS
COLUMBIA       CLOUDY    54  50  86 E14G22    30.05F
JEFFERSON CITY CLOUDY    57  49  74 E9        30.05F
ROLLA          CLOUDY    53  49  86 E10       30.04F
SEDALIA        CLOUDY    56  50  80 E15G21    30.03F
WHITEMAN AFB   CLOUDY    55  55 100 E10       30.01R
WARRENSBURG    CLOUDY    54  48  82 NE15      30.01R
OSAGE BEACH    CLOUDY    53  49  86 E10G18    30.03F

$$
MOZ051-052-059>065-290400-
...EAST CENTRAL MISSOURI...

CITY           SKY/WX    TMP DP  RH WIND       PRES   REMARKS
ST LOUIS INTL  CLOUDY    56  47  71 NE13      30.11R
SPIRIT OF STL  CLOUDY    55  49  80 E10       30.08F
ST CHARLES     CLOUDY    55  49  80 NE9       30.11R

$$
MOZ072>076-082>087-097>100-106>115-290400-
...SOUTH CENTRAL AND SOUTHEAST MISSOURI...

CITY           SKY/WX    TMP DP  RH WIND       PRES   REMARKS
CAPE GIRARDEAU CLOUDY    57  49  74 NE8       30.07R
FARMINGTON     CLOUDY    53  48  83 E9        30.09S
POPLAR BLUFF   MOCLDY    56  52  86 NE6       30.05R
WEST PLAINS    CLOUDY    58  50  75 E8        30.03R

$$




USA.gov is the U.S. government's official web portal to all federal, state and local government web resources and services.